Total_Precipitation_Accumulation
0.00 0.00 0.00 0.00 0.00 0.00 0.00 0.00 0.00 0.00 0.00 0.00 0.00 0.01 0.03 0.04 0.06 0.08 0.08 0.10 0.13 0.15 0.18 0.22 0.23 0.25 0.29 0.26 0.29 0.32 0.32 0.37 0.34 0.09 0.03 0.05 0.15 0.21 0.20 0.15 0.15 0.16 0.15
0.00 0.00 0.00 0.00 0.00 0.00 0.00 0.00 0.00 0.00 0.00 0.00 0.00 0.03 0.06 0.09 0.10 0.12 0.13 0.12 0.16 0.18 0.20 0.24 0.26 0.25 0.26 0.24 0.26 0.27 0.24 0.23 0.27 0.16 0.05 0.05 0.10 0.18 0.26 0.27 0.21 0.19 0.18
0.00 0.00 0.00 0.00 0.00 0.00 0.00 0.00 0.00 0.00 0.00 0.00 0.01 0.04 0.12 0.19 0.18 0.15 0.18 0.19 0.19 0.20 0.22 0.26 0.26 0.25 0.25 0.22 0.26 0.26 0.21 0.18 0.22 0.22 0.10 0.06 0.10 0.13 0.24 0.34 0.30 0.26 0.23
0.00 0.00 0.00 0.00 0.00 0.00 0.00 0.00 0.00 0.00 0.01 0.01 0.01 0.03 0.14 0.32 0.35 0.27 0.31 0.29 0.24 0.20 0.17 0.17 0.23 0.33 0.32 0.30 0.32 0.26 0.22 0.22 0.24 0.24 0.16 0.10 0.12 0.14 0.22 0.32 0.38 0.37 0.31
0.00 0.00 0.00 0.00 0.00 0.00 0.00 0.00 0.00 0.01 0.01 0.01 0.01 0.01 0.07 0.41 0.78 0.73 0.66 0.49 0.28 0.17 0.11 0.10 0.18 0.31 0.35 0.46 0.53 0.42 0.36 0.36 0.31 0.28 0.24 0.20 0.19 0.22 0.25 0.28 0.39 0.46 0.42
0.00 0.00 0.00 0.00 0.00 0.00 0.00 0.00 0.01 0.01 0.01 0.01 0.01 0.01 0.03 0.29 0.82 0.90 0.67 0.36 0.22 0.15 0.11 0.07 0.10 0.21 0.23 0.27 0.36 0.42 0.46 0.49 0.46 0.40 0.36 0.33 0.30 0.30 0.28 0.32 0.37 0.47 0.51
0.00 0.00 0.00 0.00 0.00 0.00 0.00 0.01 0.01 0.01 0.01 0.01 0.01 0.01 0.01 0.16 0.66 0.77 0.46 0.24 0.15 0.12 0.09 0.07 0.07 0.16 0.21 0.27 0.29 0.26 0.25 0.33 0.47 0.48 0.47 0.39 0.35 0.32 0.32 0.35 0.36 0.41 0.49
0.00 0.00 0.00 0.00 0.00 0.00 0.00 0.01 0.01 0.02 0.02 0.02 0.01 0.01 0.01 0.07 0.50 0.64 0.35 0.18 0.11 0.08 0.05 0.05 0.05 0.10 0.22 0.38 0.37 0.29 0.24 0.30 0.44 0.50 0.62 0.60 0.47 0.41 0.44 0.48 0.47 0.39 0.38
0.00 0.00 0.00 0.00 0.00 0.00 0.01 0.01 0.02 0.02 0.02 0.02 0.01 0.01 0.01 0.02 0.30 0.53 0.33 0.16 0.08 0.05 0.02 0.03 0.05 0.08 0.20 0.32 0.25 0.17 0.14 0.20 0.27 0.36 0.44 0.51 0.50 0.51 0.58 0.64 0.63 0.51 0.48
0.00 0.00 0.00 0.00 0.00 0.01 0.01 0.02 0.02 0.02 0.02 0.02 0.01 0.01 0.01 0.00 0.13 0.37 0.37 0.18 0.07 0.03 0.02 0.01 0.05 0.13 0.20 0.24 0.14 0.11 0.22 0.26 0.21 0.17 0.20 0.27 0.34 0.40 0.52 0.70 0.86 0.74 0.62
0.00 0.00 0.00 0.00 0.00 0.01 0.02 0.02 0.02 0.02 0.02 0.02 0.01 0.01 0.01 0.00 0.04 0.20 0.35 0.25 0.13 0.06 0.02 0.01 0.03 0.12 0.14 0.13 0.10 0.13 0.35 0.31 0.14 0.14 0.16 0.22 0.27 0.36 0.49 0.65 0.85 0.94 0.78
0.00 0.00 0.00 0.00 0.01 0.02 0.03 0.03 0.03 0.03 0.03 0.02 0.02 0.01 0.01 0.00 0.04 0.15 0.23 0.20 0.15 0.06 0.03 0.02 0.04 0.08 0.06 0.04 0.05 0.12 0.15 0.09 0.07 0.10 0.13 0.18 0.26 0.35 0.45 0.60 0.79 0.93 0.94
0.00 0.00 0.00 0.01 0.01 0.03 0.03 0.04 0.03 0.04 0.06 0.04 0.03 0.02 0.01 0.01 0.07 0.15 0.12 0.08 0.08 0.04 0.02 0.03 0.03 0.03 0.01 0.00 0.02 0.04 0.03 0.04 0.09 0.12 0.15 0.20 0.27 0.37 0.40 0.44 0.58 0.81 0.94
0.00 0.00 0.01 0.01 0.02 0.03 0.04 0.04 0.05 0.07 0.14 0.09 0.05 0.03 0.02 0.03 0.18 0.27 0.14 0.04 0.03 0.03 0.01 0.00 0.00 0.00 0.00 0.00 0.00 0.01 0.01 0.04 0.11 0.14 0.17 0.17 0.18 0.23 0.33 0.44 0.50 0.66 0.85
0.00 0.01 0.01 0.02 0.03 0.04 0.04 0.04 0.05 0.07 0.15 0.15 0.09 0.08 0.08 0.15 0.28 0.27 0.16 0.08 0.06 0.05 0.02 0.00 0.00 0.00 0.00 0.00 0.00 0.00 0.01 0.02 0.04 0.07 0.11 0.14 0.15 0.18 0.26 0.37 0.52 0.64 0.80
0.00 0.01 0.02 0.03 0.04 0.04 0.04 0.04 0.04 0.05 0.06 0.06 0.07 0.08 0.07 0.15 0.19 0.13 0.10 0.05 0.04 0.03 0.01 0.00 0.00 0.00 0.01 0.01 0.02 0.01 0.01 0.02 0.03 0.04 0.08 0.12 0.17 0.21 0.24 0.30 0.42 0.59 0.77
0.00 0.01 0.02 0.03 0.04 0.04 0.04 0.04 0.04 0.03 0.02 0.02 0.03 0.04 0.07 0.09 0.08 0.07 0.06 0.02 0.01 0.00 0.00 0.00 0.01 0.01 0.02 0.02 0.03 0.04 0.03 0.02 0.02 0.02 0.04 0.08 0.13 0.17 0.20 0.25 0.32 0.46 0.66
0.01 0.01 0.03 0.03 0.04 0.04 0.04 0.04 0.04 0.04 0.03 0.01 0.01 0.02 0.04 0.05 0.04 0.04 0.03 0.00 0.00 0.00 0.01 0.02 0.02 0.02 0.03 0.04 0.04 0.04 0.04 0.02 0.02 0.02 0.02 0.04 0.08 0.12 0.16 0.20 0.27 0.39 0.54
0.01 0.01 0.02 0.03 0.04 0.04 0.03 0.04 0.04 0.03 0.02 0.02 0.01 0.01 0.02 0.02 0.01 0.01 0.01 0.01 0.01 0.01 0.02 0.02 0.03 0.03 0.04 0.04 0.05 0.05 0.04 0.04 0.03 0.02 0.02 0.02 0.04 0.07 0.11 0.16 0.22 0.30 0.40
0.01 0.01 0.02 0.03 0.04 0.04 0.04 0.04 0.04 0.03 0.02 0.02 0.02 0.03 0.07 0.04 0.02 0.01 0.01 0.01 0.02 0.02 0.02 0.03 0.03 0.04 0.04 0.05 0.05 0.05 0.05 0.04 0.02 0.02 0.01 0.02 0.02 0.04 0.07 0.11 0.16 0.21 0.30
0.00 0.01 0.02 0.03 0.03 0.04 0.04 0.04 0.03 0.03 0.02 0.02 0.02 0.04 0.09 0.06 0.03 0.02 0.02 0.03 0.05 0.05 0.05 0.04 0.04 0.05 0.05 0.05 0.05 0.05 0.05 0.04 0.03 0.02 0.02 0.01 0.01 0.02 0.04 0.07 0.11 0.16 0.22
0.00 0.01 0.02 0.03 0.04 0.04 0.04 0.04 0.03 0.03 0.02 0.02 0.02 0.02 0.03 0.02 0.02 0.03 0.03 0.04 0.06 0.07 0.07 0.08 0.07 0.07 0.09 0.10 0.10 0.09 0.07 0.05 0.03 0.02 0.02 0.01 0.01 0.01 0.02 0.03 0.06 0.10 0.16
0.01 0.02 0.03 0.04 0.04 0.04 0.05 0.05 0.04 0.03 0.03 0.03 0.03 0.03 0.03 0.03 0.04 0.05 0.06 0.06 0.06 0.06 0.07 0.08 0.08 0.07 0.08 0.10 0.11 0.13 0.12 0.08 0.05 0.04 0.02 0.01 0.01 0.01 0.01 0.02 0.04 0.07 0.12
0.01 0.02 0.03 0.04 0.05 0.05 0.06 0.06 0.05 0.04 0.04 0.04 0.04 0.03 0.03 0.03 0.03 0.04 0.05 0.06 0.07 0.07 0.08 0.10 0.10 0.10 0.11 0.11 0.10 0.12 0.12 0.09 0.06 0.04 0.03 0.02 0.02 0.01 0.01 0.02 0.02 0.04 0.08
0.02 0.03 0.04 0.05 0.06 0.07 0.08 0.08 0.06 0.05 0.05 0.05 0.05 0.05 0.04 0.03 0.03 0.03 0.03 0.04 0.06 0.07 0.08 0.11 0.13 0.14 0.14 0.14 0.14 0.15 0.13 0.09 0.06 0.05 0.03 0.02 0.02 0.01 0.01 0.01 0.02 0.03 0.05
0.02 0.04 0.05 0.07 0.08 0.09 0.10 0.10 0.08 0.07 0.07 0.07 0.06 0.06 0.06 0.05 0.04 0.04 0.05 0.06 0.08 0.08 0.08 0.10 0.13 0.16 0.16 0.17 0.16 0.16 0.14 0.09 0.07 0.05 0.03 0.02 0.01 0.01 0.01 0.01 0.01 0.02 0.03